Satellite: NANOSALD
Catalog number: 37361
Epoch time:      11143.41111548
Element set:    0205
Inclination:      071.9552 deg
RA of node:       090.4741 deg
Eccentricity:    0.0024607
Arg of perigee:   230.0347 deg
Mean anomaly:     129.7364 deg
Mean motion:   14.94171307 rev/day
Decay rate:     3.1284e-04 rev/day^2
Epoch rev:           01841
Checksum:              262

Satellite: FO-70
Catalog number: 37380
Epoch time:      11143.27198841
Element set:    0170
Inclination:      071.9730 deg
RA of node:       094.2794 deg
Eccentricity:    0.0018518
Arg of perigee:   320.2485 deg
Mean anomaly:     039.7319 deg
Mean motion:   14.76349689 rev/day
Decay rate:        7.7e-07 rev/day^2
Epoch rev:           02718
Checksum:              327

/EX
SB KEPS @ AMSAT  $ORB11146.W
Orbital Elements  11146.WEATHER

HR AMSAT ORBITAL ELEMENTS FOR WEATHER SATELLITES
FROM WA5QGD FORT WORTH,TX May 26, 2011
Send Subscribe/unsubscribe to KEPS at http://www.amsat.org/mailman/listinfo/kep
BID: ORB11146.W
TO ALL RADIO AMATEURS BT

Satellite: MET-2/21
Catalog number: 22782
Epoch time:      11145.69481951
Element set:    0104
Inclination:      082.5474 deg
RA of node:       340.7253 deg
Eccentricity:    0.0022943
Arg of perigee:   158.3685 deg
Mean anomaly:     201.8433 deg
Mean motion:   13.83657773 rev/day
Decay rate:        2.4e-07 rev/day^2
Epoch rev:           89544
Checksum:              314

Satellite: NOAA-10
Catalog number: 16969
Epoch time:      11145.70958186
Element set:    0512
Inclination:      098.6196 deg
RA of node:       175.8012 deg
Eccentricity:    0.0011528
Arg of perigee:   294.1763 deg
Mean anomaly:     065.8221 deg
Mean motion:   14.27461042 rev/day
Decay rate:       -7.7e-07 rev/day^2
Epoch rev:           28444
Checksum:              311

Satellite: NOAA-16
Catalog number: 26536
Epoch time:      11145.76568446
Element set:    0309
Inclination:      099.1406 deg
RA of node:       175.8511 deg
Eccentricity:    0.0011462
Arg of perigee:   095.5853 deg
Mean anomaly:     264.6600 deg
Mean motion:   14.12620404 rev/day
Decay rate:       1.94e-06 rev/day^2
Epoch rev:           55019
Checksum:              297

Satellite: NOAA-17
Catalog number: 27453
Epoch time:      11145.76612777
Element set:    0302
Inclination:      098.3799 deg
RA of node:       186.5036 deg
Eccentricity:    0.0011176
Arg of perigee:   210.9456 deg
Mean anomaly:     149.1040 deg
Mean motion:   14.24274690 rev/day
Decay rate:       1.22e-06 rev/day^2
Epoch rev:           46346
Checksum:              302

Satellite: NOAA-18
Catalog number: 28654
Epoch time:      11145.77065274
Element set:    0782
Inclination:      098.9940 deg
RA of node:       096.8645 deg
Eccentricity:    0.0014453
Arg of perigee:   164.5319 deg
Mean anomaly:     195.6301 deg
Mean motion:   14.11478084 rev/day
Decay rate:       4.78e-06 rev/day^2
Epoch rev:           30976
Checksum:              341

Satellite: NOAA-11
Catalog number: 19531
Epoch time:      11145.78376559
Element set:    0514
Inclination:      098.7517 deg
RA of node:       233.6701 deg
Eccentricity:    0.0010443
Arg of perigee:   252.0328 deg
Mean anomaly:     107.9700 deg
Mean motion:   14.14917183 rev/day
Decay rate:       2.03e-06 rev/day^2
Epoch rev:           16958
Checksum:              293

Satellite: NOAA-19
Catalog number: 33591
Epoch time:      11145.83383614
Element set:    0973
Inclination:      098.8250 deg
RA of node:       086.3647 deg
Eccentricity:    0.0014959
Arg of perigee:   041.9981 deg
Mean anomaly:     318.2363 deg
Mean motion:   14.11167156 rev/day
Decay rate:       1.07e-06 rev/day^2
Epoch rev:           11823
Checksum:              316

Satellite: NOAA-15
Catalog number: 25338
Epoch time:      11145.83542036
Element set:    0827
Inclination:      098.6533 deg
RA of node:       132.2860 deg
Eccentricity:    0.0011005
Arg of perigee:   152.3607 deg
Mean anomaly:     207.8147 deg
Mean motion:   14.24916808 rev/day
Decay rate:       2.91e-06 rev/day^2
Epoch rev:           67754
Checksum:              297

Satellite: FENGYUN1
Catalog number: 25730
Epoch time:      11145.93869517
Element set:    0346
Inclination:      098.8177 deg
RA of node:       107.6249 deg
Eccentricity:    0.0025781
Arg of perigee:   016.1020 deg
Mean anomaly:     344.0959 deg
Mean motion:   14.08608989 rev/day
Decay rate:        1.3e-07 rev/day^2
Epoch rev:           61993
Checksum:              322

Satellite: NOAA-14
Catalog number: 23455
Epoch time:      11145.95550100
Element set:    0507
Inclination:      098.8506 deg
RA of node:       228.8110 deg
Eccentricity:    0.0009492
Arg of perigee:   348.8093 deg
Mean anomaly:     011.2865 deg
Mean motion:   14.13819569 rev/day
Decay rate:        5.0e-08 rev/day^2
Epoch rev:           84593
Checksum:              306

Satellite: OKEAN-4
Catalog number: 23317
Epoch time:      11145.96705413
Element set:    0583
Inclination:      082.5419 deg
RA of node:       033.8888 deg
Eccentricity:    0.0021310
Arg of perigee:   187.6132 deg
Mean anomaly:     172.4763 deg
Mean motion:   14.83066474 rev/day
Decay rate:       1.99e-06 rev/day^2
Epoch rev:           89725
Checksum:              318

